[[{"header":{"parameterUnit":"m.s-1","parameterCategory":2,"la1":30.2991,"la2":30.254,"lo1":-89.0895,"lo2":-89.0444,"dy":0.0017,"dx":0.0017,"nx":28,"ny":28,"refTime":"2025-05-16T21:00:00:Z","depth":"0","parameterNumber":2,"parameterNumberName":"U-component_of_CURRENTS"},"data":[0,0,0,0,0,0,0,0,0,0,0,0,0,0,0,0,0,0,0,0,0,0,0,0,0,0,0,0,0,0,0,0,0,0,0,0,0,0,0,0,0,0,0,0,0,0,0,0,0,0,0,0,0,0,0,0,0,0,0.1915,0.1915,0,0.1925,0.1925,0.1925,0.1919,0.1919,0.1918,0.1918,0.1941,0.1942,0.1943,0,0,0,0,0,0,0,0,0,0,0,0,0,0.1923,0.1922,0.1915,0.1915,0.1915,0.1925,0.1925,0.1925,0.1919,0.1919,0.1918,0.1918,0.1941,0.1942,0.1943,0,0,0,0,0,0,0,0,0,0,0,0,0,0.1924,0.1922,0.1915,0.1913,0.1913,0.1925,0.1925,0.1925,0.1919,0.1919,0.1918,0.1918,0.1941,0.1942,0.1943,0.196,0,0,0.1947,0.1948,0,0,0,0,0,0,0,0,0.1924,0.1924,0.1913,0.1913,0.1913,0.192,0.1936,0.1938,0.1919,0.1917,0.1918,0.1918,0.1936,0.1937,0.194,0.1961,0.1962,0.1947,0.1948,0.1949,0.1949,0,0,0,0,0,0,0,0.1924,0.1924,0.1919,0.1913,0.1913,0.1923,0.1923,0.1937,0.1929,0.1917,0.1916,0.1918,0.1936,0.1939,0.1941,0.1963,0.1947,0.1948,0.1949,0.195,0.2029,0.203,0,0,0,0,0,0,0.1922,0.1924,0.1918,0.1919,0.1918,0.1923,0.1923,0.1918,0.1928,0.1929,0.1918,0.1918,0.1937,0.1939,0.1941,0.198,0.1949,0.195,0.1951,0.2028,0.2029,0.2031,0,0,0,0,0,0,0.1922,0.1921,0.1918,0.1922,0.1922,0.1923,0.1919,0.1919,0.1921,0.1929,0.193,0.192,0.1936,0.194,0.1955,0.198,0.1951,0.1952,0.2026,0.2028,0.203,0.2045,0,0,0,0,0,0,0.1922,0.1921,0.1919,0.1922,0.1922,0.1926,0.1919,0.1919,0.1922,0.1921,0.1931,0.1933,0.1936,0.1953,0.1956,0.1981,0.1953,0.2025,0.2027,0.203,0.2043,0.2048,0.2052,0,0,0,0,0,0.1922,0.1921,0.1919,0.1919,0.1919,0.1926,0.1927,0.1927,0.1923,0.1926,0.1932,0.1932,0.1971,0.1954,0.1958,0.1984,0.2023,0.2027,0.2029,0.2041,0.2047,0.2051,0,0,0,0,0,0,0.1924,0.192,0.1918,0.1916,0.1921,0.1925,0.1928,0.1928,0.1936,0.1936,0.194,0.1943,0.1968,0.1975,0.1957,0.2017,0.2002,0.2005,0.201,0.2015,0.2019,0.2003,0.1954,0,0,0,0,0,0.1924,0.1921,0.1922,0.1921,0.1924,0.1926,0.193,0.1931,0.1937,0.1939,0.1944,0.196,0.1985,0.1996,0.2013,0.204,0.2047,0.2064,0.2068,0.2071,0.2063,0.2111,0.2118,0.2041,0.2041,0.204,0,0,0.1924,0.1923,0.192,0.1922,0.1925,0.1932,0.1927,0.1934,0.1943,0.1942,0.1954,0.197,0.1995,0.2026,0.204,0.2033,0.2096,0.2075,0.2078,0.2067,0.2115,0.2122,0.2129,0.2043,0.2042,0.2042,0,0,0.1924,0.1922,0.192,0.1926,0.1932,0.1938,0.194,0.1944,0.195,0.1966,0.1975,0.1999,0.2028,0.2051,0.2069,0.2107,0.2113,0.2123,0.2132,0.218,0.2186,0.2192,0.2198,0.2204,0.2128,0.2128,0.2128,0,0.1926,0.192,0.1922,0.1926,0.1932,0.194,0.1945,0.1958,0.1967,0.1978,0.1973,0.2029,0.2042,0.2093,0.2103,0.2115,0.213,0.2109,0.2184,0.219,0.2195,0.22,0.2207,0.2129,0.2129,0.2129,0.2129,0,0.1924,0.1923,0.1925,0.1931,0.1941,0.1947,0.1964,0.1977,0.1986,0.1999,0.2041,0.2062,0.2097,0.2114,0.2116,0.2172,0.2164,0.218,0.2166,0.2204,0.2207,0.2213,0.2131,0.213,0.213,0.213,0,0,0.1916,0.1921,0.1922,0.1922,0.1943,0.1948,0.1976,0.2001,0.2022,0.2043,0.2075,0.2116,0.2128,0.2148,0.2168,0.2201,0.2244,0.2203,0.2205,0.2199,0.2323,0.2262,0.2263,0.2279,0.2281,0.2282,0.2305,0,0.1913,0.1914,0.1922,0.1931,0.1933,0.1957,0.1981,0.201,0.2038,0.2072,0.2112,0.215,0.2145,0.2169,0.2203,0.2241,0.2264,0.2234,0.2296,0.2297,0.2231,0.227,0.2214,0.2226,0.2311,0.2312,0.2313,0,0.1905,0.1907,0.1909,0.1926,0.193,0.1942,0.1984,0.2008,0.2069,0.2093,0.2142,0.2174,0.2229,0.222,0.2294,0.2279,0.2293,0.2313,0.2315,0.2254,0.2248,0.2207,0.2234,0.2194,0.2323,0.2322,0.2321,0,0.1887,0.1897,0.1895,0.19,0.1925,0.1937,0.1959,0.2013,0.2044,0.2112,0.2149,0.2212,0.2256,0.2298,0.2333,0.2324,0.2403,0.2404,0.2355,0.235,0.231,0.2298,0.2296,0.2446,0.2445,0.2445,0.2445,0,0.1874,0.1872,0.1884,0.1882,0.1893,0.1921,0.1949,0.1985,0.2051,0.2095,0.2159,0.2212,0.2282,0.2337,0.2352,0.2371,0.2425,0.2352,0.236,0.2311,0.23,0.2268,0.2239,0.2446,0.2446,0.2446,0.2446,0,0.1849,0.1855,0.1852,0.1872,0.1879,0.1888,0.1936,0.1962,0.2032,0.2098,0.2125,0.2227,0.2297,0.2347,0.2415,0.2393,0.2344,0.2407,0.232,0.2315,0.2202,0.2176,0.1998,0.1966,0.2349,0.2348,0.2347,0,0.1833,0.1827,0.1835,0.1834,0.1839,0.1859,0.1877,0.1941,0.1978,0.2104,0.2136,0.2234,0.2291,0.2358,0.2355,0.2365,0.2302,0.2292,0.2258,0.2183,0.2161,0.2004,0.1982,0.2211,0.2209,0.2207,0.2206,0,0.1805,0.1806,0.1803,0.1799,0.1805,0.1815,0.185,0.1877,0.1964,0.2031,0.2117,0.2178,0.2257,0.2256,0.227,0.2265,0.2167,0.2253,0.2225,0.2082,0.1864,0.1843,0.2183,0.219,0.2192,0.2193,0.2194,0.2194,0.1784,0.1771,0.1766,0.1756,0.1761,0.176,0.1756,0.1811,0.1861,0.1948,0.2046,0.211,0.218,0.2197,0.217,0.2088,0.204,0.2032,0.2014,0.1867,0.1801,0.2072,0.2057,0.2058,0.2059,0.2059,0.206,0,0.175,0.1735,0.1724,0.1701,0.1679,0.1704,0.1725,0.1718,0.175,0.1861,0.1928,0.2007,0.201,0.2035,0.1991,0.1894,0.1781,0.1827,0.1642,0.1647,0.1957,0.192,0.1815,0.1815,0.1815,0.1815,0.1815,0.1815,0.1732,0.17,0.1684,0.1623,0.1608,0.1564,0.1563,0.1572,0.1626,0.1687,0.1741,0.1821,0.1903,0.1877,0.1786,0.1741,0.1605,0.1448,0.1463,0.1748,0.1767,0.1785,0.1745,0.1605,0.1604,0.1096,0.1092,0.109]},{"header":{"parameterUnit":"m.s-1","parameterCategory":2,"la1":30.2991,"la2":30.254,"lo1":-89.0895,"lo2":-89.0444,"dy":0.0017,"dx":0.0017,"nx":28,"ny":28,"refTime":"2025-05-16T21:00:00:Z","depth":"0","parameterNumber":3,"parameterNumberName":"V-component_of_CURRENTS"},"data":[0,0,0,0,0,0,0,0,0,0,0,0,0,0,0,0,0,0,0,0,0,0,0,0,0,0,0,0,0,0,0,0,0,0,0,0,0,0,0,0,0,0,0,0,0,0,0,0,0,0,0,0,0,0,0,0,0,0,0.0347,0.0347,0,0.0342,0.0342,0.0342,0.033,0.033,0.033,0.033,0.0306,0.0305,0.0305,0,0,0,0,0,0,0,0,0,0,0,0,0,0.0322,0.0323,0.0347,0.0347,0.0347,0.0342,0.0342,0.0342,0.033,0.033,0.033,0.033,0.0306,0.0305,0.0305,0,0,0,0,0,0,0,0,0,0,0,0,0,0.0327,0.0323,0.0347,0.034,0.034,0.0342,0.0342,0.0342,0.0331,0.033,0.033,0.0329,0.0306,0.0305,0.0305,0.0309,0,0,0.0303,0.0303,0,0,0,0,0,0,0,0,0.0327,0.0328,0.0341,0.0341,0.034,0.0336,0.0324,0.033,0.0331,0.0334,0.033,0.0329,0.0314,0.0313,0.0314,0.0308,0.0307,0.0303,0.0303,0.0302,0.0302,0,0,0,0,0,0,0,0.0326,0.0328,0.0345,0.0341,0.0341,0.0329,0.033,0.0325,0.0326,0.0334,0.0333,0.0332,0.0314,0.0314,0.0313,0.0306,0.0303,0.0303,0.0302,0.0302,0.0305,0.0306,0,0,0,0,0,0,0.0329,0.0328,0.0345,0.0345,0.0332,0.033,0.0331,0.0338,0.0327,0.0325,0.0333,0.0332,0.0315,0.0314,0.0312,0.0326,0.0302,0.0302,0.0302,0.0305,0.0306,0.0306,0,0,0,0,0,0,0.0328,0.0331,0.0346,0.0335,0.0337,0.0331,0.0339,0.0338,0.0339,0.0326,0.0324,0.0334,0.0315,0.0313,0.0313,0.0324,0.0302,0.0301,0.0304,0.0305,0.0306,0.0347,0,0,0,0,0,0,0.0328,0.0331,0.0335,0.0336,0.0337,0.0351,0.034,0.0338,0.0339,0.0338,0.0327,0.0324,0.0315,0.0314,0.0313,0.0323,0.0301,0.0304,0.0305,0.0306,0.0345,0.0349,0.0352,0,0,0,0,0,0.0327,0.0337,0.0336,0.0338,0.0345,0.0351,0.0351,0.0345,0.0339,0.0344,0.0337,0.0324,0.0318,0.0315,0.0312,0.0323,0.0303,0.0305,0.0306,0.0343,0.0348,0.0352,0,0,0,0,0,0,0.0328,0.0337,0.0335,0.0348,0.035,0.0349,0.0352,0.0348,0.0347,0.0345,0.0332,0.0329,0.0333,0.0322,0.0318,0.0326,0.0308,0.0309,0.0338,0.0342,0.0346,0.0352,0.03,0,0,0,0,0,0.0331,0.0342,0.0346,0.0355,0.0358,0.0355,0.0356,0.0354,0.0353,0.0352,0.0345,0.0338,0.0337,0.0335,0.033,0.0335,0.0324,0.0339,0.0343,0.0346,0.035,0.0349,0.0353,0.0309,0.0309,0.0309,0,0,0.0332,0.034,0.0345,0.0356,0.0357,0.037,0.0355,0.0361,0.0373,0.035,0.0361,0.035,0.0341,0.0348,0.0348,0.034,0.0352,0.0347,0.035,0.0352,0.035,0.0355,0.0358,0.031,0.031,0.031,0,0,0.0346,0.035,0.0365,0.0372,0.0378,0.0379,0.0383,0.0385,0.0386,0.0395,0.0382,0.038,0.0376,0.0373,0.0371,0.0392,0.0372,0.0387,0.0412,0.0411,0.0415,0.0418,0.0407,0.0409,0.0389,0.0389,0.0389,0,0.0347,0.037,0.0369,0.0386,0.0396,0.0387,0.0407,0.0409,0.041,0.0416,0.0403,0.0403,0.0391,0.0405,0.0409,0.0401,0.0392,0.0397,0.0416,0.0419,0.0422,0.041,0.0411,0.0391,0.0391,0.0391,0.0391,0,0.0375,0.0392,0.0402,0.0424,0.0433,0.0448,0.0453,0.046,0.0458,0.0458,0.0467,0.0451,0.0453,0.0446,0.0433,0.0446,0.0431,0.0422,0.0407,0.0429,0.0415,0.0416,0.0394,0.0394,0.0393,0.0392,0,0,0.0382,0.0416,0.042,0.044,0.0457,0.0471,0.049,0.0508,0.0525,0.0516,0.0538,0.0526,0.0512,0.0509,0.0491,0.0484,0.0488,0.046,0.0459,0.0452,0.048,0.0475,0.0475,0.0482,0.0483,0.0483,0.0462,0,0.0406,0.0449,0.0459,0.05,0.0524,0.0527,0.055,0.0562,0.0565,0.0581,0.0564,0.0575,0.0539,0.0542,0.0529,0.0501,0.0493,0.0494,0.0457,0.0456,0.0452,0.0477,0.0523,0.0509,0.0463,0.0463,0.0463,0,0.0433,0.0461,0.0506,0.055,0.0561,0.0582,0.0619,0.0638,0.0651,0.0654,0.0654,0.0639,0.0631,0.0597,0.0559,0.0562,0.0525,0.0497,0.0495,0.0478,0.0454,0.0479,0.0512,0.0522,0.0464,0.0464,0.0464,0,0.0449,0.0496,0.0536,0.055,0.0594,0.0616,0.0638,0.0659,0.0689,0.0702,0.0723,0.07,0.0702,0.0653,0.0589,0.0577,0.0543,0.0522,0.0483,0.0481,0.0507,0.0507,0.0548,0.0499,0.0499,0.05,0.05,0,0.0476,0.0508,0.0547,0.0571,0.0625,0.0642,0.0696,0.0712,0.0747,0.0797,0.0764,0.0796,0.0716,0.0686,0.0615,0.0554,0.0564,0.0494,0.0482,0.0521,0.0523,0.0521,0.0499,0.0499,0.0499,0.0499,0.0499,0,0.0489,0.0514,0.0565,0.0616,0.0636,0.0674,0.0742,0.0784,0.0806,0.0872,0.0883,0.0872,0.0836,0.0749,0.0671,0.06,0.0543,0.0508,0.0553,0.0547,0.0517,0.0495,0.0471,0.0531,0.0466,0.0465,0.0465,0,0.05,0.0527,0.0596,0.0633,0.0659,0.0718,0.0768,0.081,0.0864,0.0928,0.0969,0.0951,0.0965,0.0838,0.0708,0.0589,0.0564,0.0539,0.0525,0.0532,0.0498,0.0467,0.0519,0.0571,0.0572,0.0573,0.0573,0,0.0522,0.0545,0.0588,0.0665,0.0723,0.0796,0.087,0.0924,0.0991,0.1057,0.1131,0.1146,0.1035,0.0953,0.0776,0.0676,0.0573,0.0547,0.0554,0.0587,0.0557,0.0605,0.0557,0.0579,0.0578,0.0578,0.0578,0.0577,0.0537,0.0571,0.0631,0.0703,0.0774,0.0869,0.0944,0.1037,0.1145,0.1273,0.1265,0.1342,0.1206,0.0981,0.0836,0.0641,0.0622,0.0599,0.0571,0.0538,0.0606,0.0563,0.057,0.0569,0.0569,0.0568,0.0568,0,0.0556,0.06,0.0668,0.0761,0.0842,0.0879,0.1012,0.1106,0.1253,0.1397,0.1484,0.1527,0.1338,0.1128,0.0842,0.0714,0.0677,0.0641,0.0632,0.0688,0.0658,0.0676,0.0709,0.0709,0.0709,0.0709,0.0709,0.0709,0.0569,0.0631,0.0669,0.08,0.087,0.0996,0.1081,0.1235,0.1377,0.1613,0.1743,0.1828,0.1732,0.1125,0.0827,0.0747,0.0736,0.0649,0.0672,0.0662,0.0657,0.0652,0.0668,0.0697,0.0697,0.0763,0.0764,0.0764]}],[{"header":{"parameterUnit":"m.s-1","parameterCategory":2,"la1":30.2991,"la2":30.254,"lo1":-89.0895,"lo2":-89.0444,"dy":0.0017,"dx":0.0017,"nx":28,"ny":28,"refTime":"2025-05-16T21:00:00:Z","depth":"2","parameterNumber":2,"parameterNumberName":"U-component_of_CURRENTS"},"data":[0,0,0,0,0,0,0,0,0,0,0,0,0,0,0,0,0,0,0,0,0,0,0,0,0,0,0,0,0,0,0,0,0,0,0,0,0,0,0,0,0,0,0,0,0,0,0,0,0,0,0,0,0,0,0,0,0,0,0.1783,0.1783,0,0.1792,0.1792,0.1792,0.1788,0.1788,0.1787,0.1787,0.1806,0.1806,0.1807,0,0,0,0,0,0,0,0,0,0,0,0,0,0.1789,0.1789,0.1783,0.1783,0.1784,0.1791,0.1792,0.1792,0.1788,0.1788,0.1787,0.1787,0.1805,0.1806,0.1807,0,0,0,0,0,0,0,0,0,0,0,0,0,0.179,0.1789,0.1783,0.1783,0.1783,0.1791,0.1792,0.1792,0.1788,0.1788,0.1787,0.1787,0.1805,0.1806,0.1807,0.1818,0,0,0.181,0.181,0,0,0,0,0,0,0,0,0.179,0.179,0.1783,0.1783,0.1783,0.1789,0.18,0.1801,0.1788,0.1786,0.1787,0.1787,0.1801,0.1803,0.1804,0.1819,0.182,0.181,0.1811,0.1811,0.1811,0,0,0,0,0,0,0,0.179,0.179,0.1786,0.1783,0.1783,0.1791,0.1791,0.1801,0.1795,0.1786,0.1786,0.1787,0.1801,0.1803,0.1804,0.182,0.181,0.1811,0.1812,0.1812,0.1883,0.1884,0,0,0,0,0,0,0.1789,0.179,0.1786,0.1786,0.1787,0.1791,0.1791,0.1787,0.1794,0.1795,0.1788,0.1787,0.1802,0.1803,0.1805,0.1842,0.1811,0.1812,0.1813,0.1881,0.1883,0.1884,0,0,0,0,0,0,0.1789,0.1788,0.1786,0.1789,0.1789,0.1791,0.1787,0.1787,0.1791,0.1796,0.1797,0.1791,0.1801,0.1804,0.1817,0.1842,0.1812,0.1813,0.188,0.1882,0.1884,0.1901,0,0,0,0,0,0,0.1789,0.1788,0.1788,0.1789,0.1789,0.1793,0.1787,0.1788,0.1792,0.1792,0.1799,0.18,0.1801,0.1816,0.1818,0.1843,0.1814,0.1878,0.1881,0.1883,0.1899,0.1903,0.1907,0,0,0,0,0,0.1789,0.1789,0.1788,0.1788,0.1788,0.1793,0.1794,0.1795,0.1793,0.1796,0.1802,0.18,0.1834,0.1817,0.182,0.1845,0.1877,0.188,0.1883,0.1897,0.1902,0.1907,0,0,0,0,0,0,0.1792,0.1789,0.1788,0.1786,0.1791,0.1793,0.1797,0.1797,0.1804,0.1806,0.1807,0.1809,0.1833,0.1838,0.182,0.1875,0.1859,0.1863,0.1869,0.1875,0.1879,0.1864,0.1815,0,0,0,0,0,0.1793,0.1791,0.1792,0.1792,0.1794,0.1797,0.18,0.1802,0.1807,0.1809,0.1813,0.1827,0.1848,0.1858,0.1871,0.1896,0.1901,0.1919,0.1923,0.1926,0.1918,0.1963,0.197,0.1894,0.1894,0.1894,0,0,0.1794,0.1793,0.1791,0.1793,0.1796,0.1802,0.1798,0.1806,0.1814,0.1811,0.1823,0.1837,0.1857,0.1885,0.1898,0.1892,0.195,0.193,0.1933,0.1922,0.1967,0.1974,0.198,0.1896,0.1896,0.1895,0,0,0.1795,0.1794,0.1793,0.1798,0.1805,0.181,0.1813,0.1817,0.1823,0.1839,0.1845,0.1867,0.1892,0.1911,0.1926,0.1963,0.1968,0.1978,0.199,0.2034,0.204,0.2045,0.2051,0.2057,0.1984,0.1984,0.1984,0,0.1798,0.1793,0.1795,0.1799,0.1805,0.1813,0.1818,0.183,0.1838,0.1849,0.1846,0.1895,0.1905,0.1951,0.1961,0.1971,0.1985,0.1966,0.2038,0.2044,0.2049,0.2054,0.206,0.1985,0.1985,0.1985,0.1985,0,0.1796,0.1797,0.1799,0.1805,0.1814,0.1821,0.1836,0.1849,0.1859,0.1871,0.191,0.1928,0.1959,0.1975,0.1976,0.2028,0.2021,0.2034,0.202,0.2057,0.206,0.2066,0.1987,0.1987,0.1986,0.1986,0,0,0.179,0.1795,0.1796,0.1797,0.1817,0.1821,0.1848,0.187,0.189,0.1912,0.1942,0.1978,0.199,0.2008,0.2025,0.2056,0.2098,0.2059,0.2061,0.2055,0.2174,0.2114,0.2115,0.2132,0.2134,0.2135,0.2156,0,0.1788,0.1789,0.1797,0.1805,0.1807,0.183,0.1852,0.1879,0.1906,0.1938,0.1975,0.201,0.2006,0.203,0.2062,0.2096,0.2118,0.2089,0.2147,0.2147,0.2083,0.2121,0.1951,0.1952,0.2162,0.2163,0.2164,0,0.1781,0.1783,0.1786,0.1801,0.1805,0.1817,0.1855,0.1878,0.1934,0.1958,0.2005,0.2034,0.2085,0.2079,0.2147,0.2133,0.2148,0.2165,0.2168,0.2107,0.2099,0.1953,0.1955,0.2174,0.2173,0.2173,0.2172,0,0.1764,0.1774,0.1773,0.1778,0.1801,0.1813,0.1834,0.1884,0.1912,0.1977,0.2013,0.2071,0.2114,0.2153,0.2185,0.2178,0.2251,0.225,0.2203,0.2198,0.2059,0.2039,0.229,0.229,0.229,0.229,0.229,0,0.1753,0.1752,0.1764,0.1763,0.1773,0.1799,0.1827,0.186,0.1922,0.1963,0.2024,0.2072,0.2139,0.2189,0.2204,0.2219,0.2271,0.2201,0.2207,0.2059,0.2039,0.2239,0.2232,0.2291,0.2291,0.2291,0.2291,0,0.1729,0.1736,0.1734,0.1754,0.1761,0.177,0.1816,0.184,0.1907,0.1968,0.1995,0.2088,0.2152,0.2199,0.2262,0.2241,0.2263,0.2252,0.2052,0.2033,0.2169,0.2163,0.2197,0.2196,0.2194,0.2193,0.2192,0,0.1714,0.171,0.172,0.1719,0.1725,0.1746,0.1762,0.1823,0.1856,0.1973,0.2,0.2092,0.214,0.22,0.2182,0.2186,0.2241,0.2017,0.1969,0.216,0.2163,0.216,0.2157,0.1786,0.1782,0.1778,0.1776,0,0.1688,0.1691,0.1689,0.1687,0.1694,0.1701,0.1734,0.1758,0.1839,0.1899,0.1974,0.2027,0.2085,0.2016,0.2023,0.2001,0.2002,0.1945,0.2219,0.1838,0.1775,0.1777,0.1787,0.1744,0.1747,0.175,0.1751,0.1753,0.1669,0.1657,0.1653,0.1646,0.1651,0.1647,0.1641,0.1687,0.1729,0.1792,0.1883,0.1896,0.1909,0.1835,0.1769,0.1702,0.1846,0.1752,0.1762,0.1775,0.1726,0.1665,0.1601,0.1603,0.1605,0.1607,0.1609,0,0.1635,0.1623,0.1613,0.1591,0.1568,0.1595,0.1609,0.1586,0.1604,0.1674,0.1718,0.1581,0.154,0.1545,0.1398,0.1382,0.1358,0.1316,0.1274,0.1307,0.1336,0.1262,0.1015,0.1013,0.1011,0.1009,0,0,0.1617,0.1586,0.157,0.151,0.1498,0.1449,0.1444,0.1423,0.1438,0.1419,0.1407,0.1518,0.1537,0.128,0.1228,0.1099,0.1196,0.1049,0.1531,0.1518,0.1545,0.1597,0.1523,0,0,0,0,0]},{"header":{"parameterUnit":"m.s-1","parameterCategory":2,"la1":30.2991,"la2":30.254,"lo1":-89.0895,"lo2":-89.0444,"dy":0.0017,"dx":0.0017,"nx":28,"ny":28,"refTime":"2025-05-16T21:00:00:Z","depth":"2","parameterNumber":3,"parameterNumberName":"V-component_of_CURRENTS"},"data":[0,0,0,0,0,0,0,0,0,0,0,0,0,0,0,0,0,0,0,0,0,0,0,0,0,0,0,0,0,0,0,0,0,0,0,0,0,0,0,0,0,0,0,0,0,0,0,0,0,0,0,0,0,0,0,0,0,0,0.0267,0.0267,0,0.0261,0.0261,0.0261,0.025,0.025,0.025,0.025,0.0225,0.0225,0.0224,0,0,0,0,0,0,0,0,0,0,0,0,0,0.0245,0.0245,0.0267,0.0267,0.0267,0.0261,0.0261,0.0261,0.025,0.025,0.025,0.025,0.0225,0.0225,0.0224,0,0,0,0,0,0,0,0,0,0,0,0,0,0.0248,0.0246,0.0267,0.0261,0.026,0.0261,0.0261,0.0261,0.025,0.025,0.025,0.025,0.0225,0.0225,0.0224,0.0226,0,0,0.0222,0.0222,0,0,0,0,0,0,0,0,0.0248,0.0249,0.0262,0.0262,0.0261,0.0256,0.0244,0.0248,0.025,0.0254,0.025,0.0249,0.0234,0.0232,0.0232,0.0225,0.0224,0.0222,0.0221,0.0221,0.0221,0,0,0,0,0,0,0,0.0248,0.0249,0.0265,0.0262,0.0261,0.025,0.025,0.0245,0.0246,0.0254,0.0253,0.0252,0.0233,0.0233,0.0232,0.0223,0.0222,0.0221,0.0221,0.022,0.0223,0.0224,0,0,0,0,0,0,0.025,0.0249,0.0265,0.0265,0.0253,0.0251,0.0251,0.0258,0.0246,0.0244,0.0253,0.0252,0.0234,0.0232,0.0231,0.0245,0.0221,0.022,0.022,0.0223,0.0223,0.0224,0,0,0,0,0,0,0.025,0.0252,0.0265,0.0256,0.0257,0.0251,0.0259,0.0258,0.0259,0.0245,0.0243,0.0255,0.0234,0.0232,0.0232,0.0243,0.022,0.0219,0.0222,0.0223,0.0224,0.0264,0,0,0,0,0,0,0.025,0.0252,0.0257,0.0257,0.0258,0.027,0.0259,0.0258,0.0259,0.0258,0.0247,0.0244,0.0234,0.0233,0.0232,0.0242,0.0219,0.0221,0.0222,0.0223,0.0262,0.0266,0.027,0,0,0,0,0,0.0249,0.0259,0.0258,0.0259,0.0265,0.0271,0.027,0.0265,0.026,0.0264,0.0258,0.0244,0.0238,0.0233,0.0231,0.0241,0.0221,0.0222,0.0223,0.0261,0.0266,0.027,0,0,0,0,0,0,0.025,0.0259,0.0257,0.0269,0.0271,0.0269,0.0272,0.0268,0.0267,0.0266,0.0252,0.0249,0.0253,0.0242,0.0237,0.0244,0.0227,0.0228,0.0256,0.0261,0.0264,0.0272,0.0218,0,0,0,0,0,0.0253,0.0265,0.0267,0.0277,0.0279,0.0276,0.0277,0.0275,0.0274,0.0273,0.0265,0.0258,0.0256,0.0254,0.0249,0.0253,0.0243,0.0258,0.0261,0.0265,0.0269,0.0268,0.0272,0.0227,0.0227,0.0227,0,0,0.0255,0.0262,0.0267,0.0278,0.0278,0.029,0.0276,0.0282,0.0293,0.027,0.0281,0.0271,0.026,0.0267,0.0267,0.0258,0.0271,0.0266,0.0269,0.0272,0.0269,0.0274,0.0278,0.0228,0.0228,0.0228,0,0,0.0269,0.0273,0.0287,0.0293,0.0299,0.03,0.0304,0.0305,0.0307,0.0315,0.0303,0.0301,0.0296,0.0293,0.0291,0.0312,0.0291,0.0307,0.0332,0.0331,0.0335,0.0338,0.0328,0.033,0.0309,0.0309,0.0309,0,0.027,0.0292,0.0291,0.0307,0.0317,0.0308,0.0327,0.0329,0.033,0.0336,0.0324,0.0324,0.0311,0.0324,0.0329,0.0321,0.0313,0.0317,0.0337,0.034,0.0342,0.0331,0.0333,0.0311,0.0311,0.0311,0.0311,0,0.0296,0.0313,0.0323,0.0344,0.0353,0.0368,0.0372,0.0379,0.0378,0.0378,0.0387,0.0372,0.0373,0.0367,0.0354,0.0367,0.0352,0.0342,0.0327,0.0349,0.0336,0.0337,0.0314,0.0313,0.0313,0.0312,0,0,0.0304,0.0336,0.034,0.036,0.0376,0.0389,0.0408,0.0425,0.0443,0.0435,0.0457,0.0445,0.0433,0.0429,0.0412,0.0405,0.041,0.0382,0.0381,0.0374,0.0402,0.0394,0.0394,0.0404,0.0404,0.0405,0.0384,0,0.0327,0.0369,0.0378,0.0418,0.0441,0.0444,0.0467,0.0479,0.0482,0.0498,0.0483,0.0494,0.0459,0.0462,0.0451,0.0423,0.0415,0.0416,0.0379,0.0378,0.037,0.0396,0.0383,0.0365,0.0385,0.0385,0.0385,0,0.0354,0.038,0.0424,0.0467,0.0477,0.0498,0.0535,0.0554,0.0567,0.057,0.0571,0.0557,0.0549,0.0518,0.0481,0.0483,0.0448,0.042,0.0418,0.0399,0.0373,0.0346,0.0366,0.0387,0.0387,0.0386,0.0386,0,0.037,0.0415,0.0454,0.0468,0.051,0.0532,0.0554,0.0575,0.0604,0.0618,0.0639,0.0617,0.0619,0.0572,0.051,0.0499,0.0465,0.0444,0.0404,0.0402,0.0378,0.0374,0.0424,0.0424,0.0424,0.0424,0.0424,0,0.0397,0.0427,0.0466,0.0489,0.0542,0.0559,0.0612,0.0628,0.0662,0.0711,0.0679,0.0709,0.0634,0.0604,0.0535,0.0474,0.0486,0.0415,0.0402,0.0391,0.0389,0.0396,0.0393,0.0423,0.0423,0.0423,0.0423,0,0.0409,0.0434,0.0484,0.0533,0.0553,0.0591,0.0658,0.0698,0.072,0.0784,0.0795,0.0782,0.0747,0.0663,0.0588,0.0518,0.0453,0.0427,0.0415,0.0401,0.0382,0.0381,0.0384,0.0384,0.0383,0.0383,0.0383,0,0.0421,0.0448,0.0515,0.0551,0.0577,0.0635,0.0683,0.0725,0.0776,0.0837,0.0876,0.0856,0.0865,0.074,0.0607,0.0491,0.0468,0.0394,0.0373,0.0393,0.038,0.038,0.038,0.0351,0.0351,0.0351,0.035,0,0.0443,0.0466,0.0508,0.0583,0.064,0.0711,0.0782,0.0834,0.0898,0.0958,0.1026,0.1035,0.0918,0.0797,0.0622,0.0526,0.0409,0.0384,0.0416,0.0367,0.0362,0.0349,0.035,0.0347,0.0348,0.0348,0.0348,0.0348,0.0458,0.0491,0.0549,0.0621,0.069,0.0781,0.0852,0.0938,0.1037,0.1141,0.1133,0.1152,0.0987,0.0774,0.0597,0.0399,0.0424,0.0341,0.0342,0.0344,0.0347,0.0343,0.0324,0.0324,0.0324,0.0325,0.0325,0,0.0475,0.052,0.0585,0.0676,0.0752,0.0791,0.0918,0.0996,0.1128,0.1221,0.1284,0.1124,0.0979,0.0784,0.0504,0.0345,0.0312,0.0269,0.0268,0.0272,0.0276,0.0276,0.0234,0.0233,0.0232,0.0232,0,0,0.0487,0.0547,0.0584,0.0709,0.0779,0.0898,0.0979,0.1101,0.1196,0.1296,0.1316,0.1303,0.1063,0.0838,0.0597,0.0428,0.0386,0.0377,0.0468,0.05,0.0506,0.0333,0.034,0,0,0,0,0]}],[{"header":{"parameterUnit":"m.s-1","parameterCategory":2,"la1":30.2991,"la2":30.254,"lo1":-89.0895,"lo2":-89.0444,"dy":0.0017,"dx":0.0017,"nx":28,"ny":28,"refTime":"2025-05-16T21:00:00:Z","depth":"4","parameterNumber":2,"parameterNumberName":"U-component_of_CURRENTS"},"data":[0,0,0,0,0,0,0,0,0,0,0,0,0,0,0,0,0,0,0,0,0,0,0,0,0,0,0,0,0,0,0,0,0,0,0,0,0,0,0,0,0,0,0,0,0,0,0,0,0,0,0,0,0,0,0,0,0,0,0.1184,0.1184,0,0.1213,0.1214,0.1214,0.1243,0.1244,0.1244,0.1245,0.1273,0.1274,0.1274,0,0,0,0,0,0,0,0,0,0,0,0,0,0.1151,0.1151,0.1184,0.1184,0.1185,0.1213,0.1214,0.1214,0.1243,0.1244,0.1244,0.1245,0.1273,0.1274,0.1274,0,0,0,0,0,0,0,0,0,0,0,0,0,0.117,0.1151,0.1184,0.1204,0.1206,0.1213,0.1214,0.1214,0.1243,0.1244,0.1244,0.1245,0.1273,0.1274,0.1274,0.1262,0,0,0.1275,0.1276,0,0,0,0,0,0,0,0,0.1169,0.1171,0.12,0.1202,0.1205,0.1226,0.1213,0.123,0.1243,0.1228,0.1245,0.1245,0.1258,0.126,0.1262,0.1263,0.1264,0.1275,0.1276,0.1276,0.1276,0,0,0,0,0,0,0,0.1167,0.117,0.1194,0.1201,0.1204,0.1211,0.1214,0.1216,0.1237,0.1229,0.1231,0.1236,0.1259,0.1261,0.1263,0.1265,0.1275,0.1276,0.1276,0.1276,0.132,0.132,0,0,0,0,0,0,0.1166,0.1169,0.1194,0.1195,0.119,0.1211,0.1214,0.1218,0.1237,0.1241,0.1236,0.1238,0.126,0.1262,0.1264,0.1317,0.1276,0.1276,0.1277,0.1319,0.132,0.1321,0,0,0,0,0,0,0.1165,0.1167,0.1192,0.1184,0.1188,0.1211,0.1214,0.1218,0.1244,0.1243,0.1247,0.1261,0.1261,0.1263,0.129,0.1316,0.1277,0.1277,0.1318,0.1319,0.132,0.1381,0,0,0,0,0,0,0.1164,0.1167,0.1181,0.1184,0.1188,0.1211,0.1214,0.1218,0.1245,0.1249,0.1265,0.1267,0.1262,0.1289,0.129,0.1316,0.1277,0.1317,0.1318,0.132,0.1378,0.1384,0.139,0,0,0,0,0,0.1162,0.1174,0.1182,0.1186,0.1203,0.1212,0.1215,0.1233,0.1246,0.1259,0.1275,0.1268,0.13,0.129,0.1291,0.1318,0.1316,0.1318,0.132,0.1375,0.1383,0.1389,0,0,0,0,0,0,0.1168,0.1178,0.1187,0.1202,0.1214,0.1218,0.1236,0.1246,0.1269,0.1281,0.128,0.1283,0.1317,0.1306,0.1295,0.1334,0.1306,0.1309,0.1348,0.1355,0.1361,0.1351,0.1278,0,0,0,0,0,0.1175,0.1189,0.1196,0.1212,0.122,0.1233,0.1245,0.1257,0.1271,0.1283,0.1294,0.1306,0.132,0.133,0.1337,0.1357,0.1349,0.1374,0.138,0.1385,0.1377,0.1396,0.1404,0.1327,0.1327,0.1327,0,0,0.1182,0.1191,0.12,0.1215,0.1228,0.1241,0.1243,0.1267,0.1285,0.1281,0.1318,0.133,0.1331,0.1358,0.1371,0.1356,0.1404,0.1387,0.1392,0.1381,0.1399,0.1407,0.1413,0.1329,0.1328,0.1328,0,0,0.1192,0.1212,0.1223,0.1235,0.1259,0.1265,0.1277,0.1295,0.1314,0.1344,0.135,0.1377,0.1396,0.1402,0.1407,0.1446,0.1437,0.1455,0.1476,0.1497,0.1503,0.1508,0.1517,0.1522,0.1456,0.1456,0.1456,0,0.1204,0.1215,0.1229,0.1242,0.1257,0.1278,0.1293,0.1312,0.1339,0.1355,0.1366,0.1408,0.1414,0.1442,0.1459,0.146,0.1467,0.1453,0.1505,0.151,0.1515,0.1521,0.1527,0.1459,0.1459,0.1459,0.1458,0,0.1211,0.1232,0.1242,0.1265,0.1282,0.1302,0.1324,0.1352,0.1382,0.1397,0.1443,0.1458,0.1481,0.1493,0.149,0.1527,0.1521,0.1514,0.1488,0.1526,0.1531,0.1535,0.1464,0.1463,0.1462,0.1461,0,0,0.1205,0.124,0.1247,0.1261,0.1298,0.1308,0.1348,0.1378,0.1406,0.1445,0.1479,0.1514,0.153,0.1535,0.1544,0.1559,0.1605,0.1555,0.1554,0.1564,0.1649,0.1532,0.1525,0.1616,0.1617,0.1618,0.1643,0,0.1209,0.1233,0.1253,0.1284,0.1297,0.1332,0.1362,0.1397,0.1435,0.1474,0.1505,0.1543,0.1545,0.157,0.1589,0.1601,0.1619,0.1598,0.1608,0.1608,0.1501,0.1527,0.1621,0.1646,0.1647,0.1648,0.1649,0,0.1202,0.1222,0.1251,0.1291,0.1301,0.1328,0.1381,0.1411,0.1468,0.15,0.1547,0.1572,0.1613,0.1609,0.165,0.1642,0.1649,0.1653,0.1654,0.1521,0.1498,0.1597,0.1657,0.1656,0.1655,0.1655,0.1654,0,0.1175,0.1218,0.1242,0.1256,0.1305,0.1335,0.1368,0.1424,0.1456,0.1525,0.1559,0.1607,0.1643,0.1663,0.168,0.1676,0.1713,0.1706,0.1605,0.1597,0.167,0.1664,0.173,0.1729,0.1729,0.1729,0.1729,0,0.1155,0.1177,0.1237,0.1249,0.1284,0.1327,0.1373,0.1415,0.1479,0.1511,0.1576,0.1605,0.1662,0.169,0.1694,0.1657,0.1729,0.1603,0.1593,0.1696,0.1692,0.1674,0.1667,0.173,0.173,0.173,0.173,0,0.1113,0.1154,0.1184,0.1247,0.1271,0.1299,0.1374,0.14,0.1474,0.1522,0.1549,0.1621,0.1649,0.1686,0.1715,0.1662,0.1647,0.1618,0.1725,0.1722,0.1515,0.1511,0.1499,0.1495,0.1491,0.1489,0.1486,0,0.1089,0.1104,0.1177,0.1198,0.1231,0.1283,0.1312,0.139,0.1415,0.1512,0.1522,0.1587,0.1621,0.1567,0.1613,0.1602,0.1585,0.1561,0.1529,0.1498,0.1491,0.1492,0.1493,0.1481,0.148,0.1479,0.1478,0,0.1044,0.1084,0.1111,0.1155,0.1194,0.1223,0.1274,0.1284,0.1364,0.145,0.1454,0.146,0.1485,0.1491,0.1493,0.1486,0.1564,0.1526,0.1532,0.1502,0.1476,0.1473,0.1477,0.1466,0.1468,0.1469,0.147,0,0.1017,0.1025,0.1069,0.1095,0.114,0.1142,0.1178,0.1199,0.1233,0.1336,0.1334,0.1401,0.1471,0.1431,0.1435,0.1413,0.1388,0.1331,0.1347,0.1361,0.1301,0.1247,0.1152,0,0,0,0,0,0.0981,0.0979,0.1002,0.1019,0.1059,0.1084,0.1139,0.1175,0.1256,0.1223,0.1272,0.1287,0.1282,0.1315,0.1263,0.1371,0.1396,0.1303,0.134,0.1401,0.1415,0.1355,0,0,0,0,0,0,0.0956,0.0978,0.0976,0.0949,0.0948,0.0976,0.1008,0.1063,0.1045,0.1135,0.114,0.1205,0.1223,0.1302,0.1241,0.1249,0.1241,0.1347,0.1343,0.1393,0.1406,0.1416,0.136,0,0,0,0,0]},{"header":{"parameterUnit":"m.s-1","parameterCategory":2,"la1":30.2991,"la2":30.254,"lo1":-89.0895,"lo2":-89.0444,"dy":0.0017,"dx":0.0017,"nx":28,"ny":28,"refTime":"2025-05-16T21:00:00:Z","depth":"4","parameterNumber":3,"parameterNumberName":"V-component_of_CURRENTS"},"data":[0,0,0,0,0,0,0,0,0,0,0,0,0,0,0,0,0,0,0,0,0,0,0,0,0,0,0,0,0,0,0,0,0,0,0,0,0,0,0,0,0,0,0,0,0,0,0,0,0,0,0,0,0,0,0,0,0,0,0.0158,0.0158,0,0.0155,0.0155,0.0155,0.015,0.015,0.015,0.015,0.0132,0.0131,0.0131,0,0,0,0,0,0,0,0,0,0,0,0,0,0.0141,0.0142,0.0158,0.0158,0.0158,0.0155,0.0155,0.0155,0.015,0.015,0.015,0.015,0.0132,0.0131,0.0131,0,0,0,0,0,0,0,0,0,0,0,0,0,0.0144,0.0142,0.0158,0.0155,0.0155,0.0155,0.0155,0.0155,0.015,0.015,0.015,0.015,0.0132,0.0132,0.0131,0.013,0,0,0.0129,0.0129,0,0,0,0,0,0,0,0,0.0144,0.0145,0.0156,0.0156,0.0155,0.0153,0.0142,0.0146,0.015,0.0152,0.015,0.015,0.0137,0.0136,0.0136,0.0129,0.0128,0.0129,0.0129,0.0129,0.0128,0,0,0,0,0,0,0,0.0144,0.0145,0.0157,0.0156,0.0155,0.0147,0.0148,0.0143,0.0145,0.0152,0.0151,0.0151,0.0137,0.0137,0.0136,0.0128,0.0129,0.0129,0.0128,0.0128,0.0135,0.0135,0,0,0,0,0,0,0.0146,0.0145,0.0157,0.0157,0.0149,0.0148,0.0148,0.0154,0.0146,0.0144,0.0151,0.0151,0.0138,0.0137,0.0135,0.0152,0.0129,0.0128,0.0128,0.0134,0.0135,0.0135,0,0,0,0,0,0,0.0145,0.0147,0.0157,0.015,0.0151,0.0148,0.0154,0.0154,0.0157,0.0145,0.0144,0.0156,0.0138,0.0136,0.014,0.015,0.0128,0.0127,0.0133,0.0134,0.0135,0.0173,0,0,0,0,0,0,0.0145,0.0147,0.0152,0.0151,0.0152,0.0163,0.0154,0.0154,0.0157,0.0157,0.0149,0.0147,0.0138,0.0141,0.0139,0.0149,0.0127,0.0133,0.0134,0.0135,0.0171,0.0175,0.0179,0,0,0,0,0,0.0144,0.0153,0.0152,0.0154,0.0158,0.0163,0.0163,0.016,0.0157,0.0162,0.016,0.0147,0.0146,0.0141,0.0139,0.0149,0.0132,0.0134,0.0135,0.017,0.0174,0.0178,0,0,0,0,0,0,0.0146,0.0153,0.0152,0.0162,0.0164,0.0162,0.0166,0.0164,0.0166,0.0166,0.0155,0.0153,0.016,0.0149,0.0144,0.0154,0.0137,0.0137,0.0164,0.0168,0.0172,0.0181,0.0126,0,0,0,0,0,0.0149,0.0159,0.0161,0.0169,0.0171,0.017,0.0171,0.0171,0.0171,0.0172,0.0167,0.0163,0.0163,0.0162,0.0159,0.0164,0.0154,0.0168,0.0172,0.0175,0.0182,0.0179,0.0183,0.0139,0.0139,0.0139,0,0,0.0151,0.0157,0.0161,0.017,0.0171,0.0182,0.0171,0.0177,0.0188,0.0169,0.0183,0.0176,0.0168,0.0176,0.0177,0.0168,0.0182,0.0177,0.0179,0.0184,0.0181,0.0185,0.0189,0.014,0.014,0.014,0,0,0.0162,0.0167,0.0178,0.0184,0.0191,0.0192,0.0196,0.0199,0.0203,0.0214,0.0205,0.0207,0.0204,0.0203,0.0201,0.0223,0.0202,0.0218,0.0243,0.0241,0.0245,0.0248,0.0238,0.024,0.0219,0.0219,0.0219,0,0.0164,0.0182,0.0182,0.0196,0.0205,0.02,0.0216,0.022,0.0224,0.0232,0.0223,0.0229,0.0219,0.0233,0.024,0.0232,0.0223,0.0228,0.0246,0.0249,0.0252,0.0241,0.0243,0.0221,0.0221,0.022,0.022,0,0.0184,0.02,0.0208,0.0227,0.0236,0.0249,0.0255,0.0265,0.0268,0.027,0.0285,0.0274,0.0278,0.0273,0.0263,0.0278,0.0264,0.0252,0.0236,0.0258,0.0246,0.0247,0.0224,0.0223,0.0222,0.0222,0,0,0.0188,0.0217,0.0221,0.024,0.0256,0.0268,0.0288,0.0306,0.0325,0.0323,0.0346,0.0342,0.0334,0.0332,0.0318,0.0314,0.0321,0.0292,0.0291,0.0284,0.0311,0.028,0.0278,0.0311,0.0312,0.0312,0.0293,0,0.0205,0.0241,0.0251,0.0287,0.0307,0.0315,0.0337,0.0352,0.036,0.0379,0.037,0.0384,0.0357,0.0363,0.0355,0.0331,0.0326,0.0326,0.0289,0.0288,0.0259,0.0279,0.0314,0.0294,0.0294,0.0294,0.0295,0,0.0224,0.0247,0.0286,0.0328,0.0338,0.0359,0.0397,0.0417,0.0435,0.0442,0.0448,0.0439,0.0438,0.0412,0.0383,0.0384,0.0355,0.0331,0.0329,0.0289,0.0259,0.0267,0.0296,0.0296,0.0296,0.0296,0.0296,0,0.0232,0.0274,0.0309,0.0322,0.0364,0.0388,0.0413,0.0437,0.0465,0.0485,0.0504,0.0492,0.0496,0.0458,0.0405,0.0398,0.0367,0.035,0.0294,0.0291,0.0307,0.0303,0.0334,0.0334,0.0334,0.0334,0.0334,0,0.0249,0.0277,0.0319,0.0339,0.0389,0.041,0.0463,0.0481,0.0517,0.0557,0.0541,0.056,0.0508,0.0481,0.0426,0.0362,0.0383,0.0304,0.0288,0.0322,0.0321,0.0307,0.0304,0.0334,0.0334,0.0334,0.0334,0,0.0251,0.0277,0.0323,0.0375,0.0396,0.0432,0.0501,0.0537,0.0564,0.0616,0.0627,0.0617,0.058,0.0517,0.0454,0.0391,0.0331,0.0303,0.0345,0.033,0.025,0.025,0.0243,0.0241,0.024,0.024,0.0239,0,0.0256,0.0279,0.0347,0.0381,0.0408,0.0467,0.0512,0.0558,0.0599,0.0649,0.0675,0.0656,0.0638,0.0528,0.045,0.0341,0.0319,0.0279,0.0264,0.0258,0.0243,0.0244,0.0244,0.0237,0.0237,0.0237,0.0237,0,0.0265,0.029,0.0328,0.0397,0.0452,0.0516,0.0581,0.0615,0.0674,0.0698,0.0717,0.0666,0.062,0.0526,0.0439,0.0359,0.0299,0.0269,0.027,0.0256,0.0252,0.0238,0.024,0.0233,0.0234,0.0234,0.0234,0,0.0271,0.0297,0.035,0.0411,0.048,0.0548,0.0585,0.064,0.0683,0.0735,0.0736,0.0691,0.0667,0.0535,0.0458,0.0373,0.0344,0.0301,0.03,0.0302,0.0316,0.0319,0.0315,0,0,0,0,0,0.0273,0.0305,0.0362,0.0433,0.0502,0.0545,0.0626,0.0659,0.0714,0.073,0.0736,0.0694,0.0582,0.0534,0.0445,0.0426,0.032,0.0314,0.0268,0.0215,0.0218,0.022,0,0,0,0,0,0,0.0277,0.0325,0.0356,0.0439,0.0489,0.057,0.0624,0.0664,0.0674,0.0711,0.0655,0.0645,0.0537,0.0631,0.0434,0.041,0.0361,0.027,0.0267,0.0212,0.0216,0.0219,0.0222,0,0,0,0,0]}]]